Temperature
24 24 24 23 20 20 24 25 25 26 26 26 26 25 23 22 22 21 20 20 20 20 20 20 20 20 20 20 20 20 20 20 20 20 20 20 20 20 20 20 20 20 20 20 20 20 20 19 19
24 24 24 23 20 21 24 25 26 27 27 26 26 25 23 22 21 20 20 20 21 21 20 20 20 20 20 20 20 20 20 20 20 20 20 20 20 20 20 20 20 20 20 20 20 20 19 19 19
25 24 24 21 22 22 24 25 26 28 28 27 25 25 23 22 21 21 21 20 21 21 20 20 20 20 20 20 20 19 19 19 19 19 19 19 20 20 20 20 20 19 19 19 19 19 19 19 19
25 24 24 22 24 25 25 26 27 27 27 26 25 23 23 22 22 22 21 21 21 21 20 20 20 20 20 20 19 19 19 19 19 19 19 19 19 19 19 19 19 19 19 19 19 19 19 19 19
25 24 22 23 25 26 26 27 28 26 26 25 24 22 22 22 22 21 21 21 21 21 20 20 20 20 20 19 19 19 19 19 19 19 19 19 19 19 19 19 19 19 19 19 19 19 19 19 19
25 22 22 23 25 26 27 28 28 26 25 25 24 22 22 22 22 21 21 21 21 21 21 20 20 20 20 20 19 19 19 19 19 19 19 19 19 19 19 19 19 19 19 19 19 19 19 19 18
24 21 22 23 24 25 27 28 27 26 26 25 25 22 22 21 21 21 21 21 21 21 21 21 20 20 20 20 19 19 19 19 19 19 19 19 19 19 19 19 19 19 19 19 19 19 19 19 18
26 21 22 22 23 25 26 28 28 28 27 26 25 22 22 22 22 21 21 21 21 21 21 21 21 20 20 20 19 19 19 19 19 19 19 19 19 19 19 19 19 19 19 19 19 19 19 19 18
25 21 21 22 23 24 25 27 28 27 27 26 26 25 24 23 22 21 21 21 21 21 21 21 21 20 20 20 19 19 19 19 19 19 19 18 18 18 18 18 19 19 19 19 19 19 19 19 18
25 21 23 23 23 23 25 26 27 26 25 25 25 24 23 23 22 22 21 21 21 21 21 21 21 21 20 20 20 19 19 19 19 19 19 18 18 18 18 18 18 19 19 19 19 19 19 19 18
25 23 24 24 25 25 25 26 27 25 24 24 24 24 23 23 22 22 22 22 22 22 21 21 21 21 21 20 20 19 19 19 19 19 19 18 18 18 18 18 19 19 19 19 19 19 18 18 18
26 25 25 25 26 26 26 26 26 25 25 25 25 24 23 23 23 22 22 22 22 22 21 21 21 21 21 20 20 20 19 19 19 19 19 18 18 18 18 18 18 19 19 19 18 18 18 18 18
26 26 26 26 27 27 27 26 25 24 25 25 24 24 23 23 23 23 22 22 22 22 22 21 21 21 21 20 20 20 20 19 19 19 19 19 18 18 18 18 18 18 18 18 18 18 18 18 18
26 26 26 27 27 26 25 24 24 23 23 24 24 23 22 22 22 22 22 22 22 22 21 21 21 21 21 21 20 20 20 20 19 19 19 19 18 18 18 18 18 18 18 18 18 18 18 18 18
27 26 25 25 25 25 25 22 21 22 23 23 22 22 22 21 21 21 21 21 21 21 21 21 21 21 21 21 21 20 20 20 20 19 19 19 19 18 18 18 18 18 18 18 18 18 18 18 18
25 24 23 24 24 24 23 21 20 21 21 20 20 20 20 20 20 20 20 21 21 21 21 21 21 21 21 21 21 20 20 20 20 19 19 19 19 19 18 18 19 19 18 18 18 18 18 18 18
22 22 23 23 23 22 21 19 19 19 19 18 18 18 18 19 19 19 19 20 20 20 20 20 20 20 21 21 21 20 20 20 20 19 19 19 19 19 19 19 19 19 18 18 18 18 18 18 18
22 22 22 22 22 21 19 18 17 17 17 16 16 16 16 17 17 18 18 19 19 19 20 20 20 20 20 20 20 20 20 20 20 19 19 19 19 19 19 19 19 19 18 18 18 18 18 18 18
22 21 21 21 21 20 18 16 16 16 16 15 15 15 15 15 16 17 17 18 18 19 19 19 20 20 20 20 20 20 20 20 20 19 19 19 19 19 19 18 19 19 18 18 18 18 18 18 18
20 20 20 20 21 20 17 16 16 15 15 14 14 14 14 14 15 16 16 17 17 18 18 18 19 19 20 20 20 20 20 20 19 19 19 19 19 19 18 18 18 18 18 18 18 18 18 18 18
20 20 20 20 19 19 17 15 14 15 14 14 14 13 13 13 14 15 16 16 16 17 17 17 18 19 19 19 19 19 19 19 19 19 18 19 19 18 18 18 18 18 18 18 18 18 18 18 17
19 20 20 20 18 16 18 15 12 13 13 13 13 13 13 13 13 14 15 15 15 16 16 17 17 18 18 18 18 19 19 19 19 19 18 18 18 18 18 18 17 17 17 17 17 17 17 17 17
19 19 19 19 18 16 15 13 12 12 12 12 12 12 12 12 12 13 13 14 15 15 15 16 16 17 17 18 18 18 18 19 18 18 18 18 18 18 17 17 17 17 17 17 17 17 17 17 17
17 17 17 15 14 14 14 13 12 11 11 12 12 12 12 12 12 12 13 13 14 14 14 15 15 16 16 17 17 17 18 18 18 18 18 17 17 17 17 17 16 16 16 16 16 16 16 16 16
15 14 14 14 13 13 14 13 12 12 12 12 12 11 11 12 12 12 12 13 13 14 14 14 14 15 15 16 16 16 17 17 17 17 17 17 16 16 16 16 16 16 15 15 16 16 16 16 16
16 14 13 14 13 13 13 12 12 12 12 12 12 11 11 11 12 12 12 12 13 13 13 13 14 14 14 15 15 15 15 16 16 16 16 16 15 15 15 15 15 15 15 15 15 15 15 15 15
15 14 14 13 14 13 12 12 12 12 12 12 12 11 11 11 11 12 12 12 12 13 13 13 13 13 13 14 14 14 14 15 15 15 15 15 15 15 15 15 15 15 15 15 15 15 15 15 15
15 14 12 12 12 12 12 12 11 11 11 11 11 11 11 11 11 11 12 12 12 12 12 13 13 13 13 13 14 14 14 14 14 14 14 14 14 14 14 14 14 14 14 14 14 15 15 15 15
14 13 12 11 11 11 11 11 12 11 11 11 11 11 11 11 11 11 11 12 12 12 12 12 13 13 13 13 13 13 14 14 14 14 14 14 14 14 14 14 14 14 14 14 15 15 15 15 15
15 14 12 11 11 11 11 11 12 11 11 11 11 12 12 12 12 12 12 12 12 12 12 12 12 13 13 13 13 13 13 13 14 14 14 14 14 14 14 14 14 14 15 15 15 15 15 15 15
Wind_Speed
6 3 3 2 6 6 4 1 4 5 5 5 8 9 8 5 3 6 6 15 17 14 16 18 18 17 16 15 15 15 14 14 14 13 13 12 12 11 10 10 10 9 9 9 9 9 8 8 8
3 1 2 4 6 5 1 2 6 4 6 8 8 7 7 6 6 9 8 15 18 16 16 17 18 17 16 15 15 15 14 14 13 13 12 12 11 11 10 9 9 9 9 9 8 8 7 7 7
3 2 3 4 4 5 4 4 5 4 6 7 5 6 6 6 8 6 11 19 17 15 16 17 18 17 16 15 14 15 14 14 13 13 12 11 10 10 9 9 9 9 8 8 8 7 7 6 6
1 4 5 5 3 5 7 5 4 5 6 6 6 6 4 4 7 12 19 19 17 13 15 17 18 17 15 14 14 14 14 14 13 12 11 11 10 10 9 9 9 9 8 8 7 6 6 5 5
3 4 5 3 1 1 2 2 5 7 5 6 8 6 4 3 16 22 20 18 17 13 15 17 18 16 15 14 14 14 14 13 13 12 11 11 10 9 9 8 8 8 8 7 7 6 5 5 4
4 5 5 2 3 2 3 4 8 10 9 8 9 6 3 7 17 19 18 16 16 16 14 16 18 17 15 15 14 14 14 14 13 12 11 11 10 9 9 8 8 7 7 6 6 5 5 4 4
4 4 2 2 3 4 4 4 6 7 7 7 8 7 5 7 13 16 17 16 15 14 14 13 16 16 16 15 14 15 14 14 14 13 12 11 11 10 9 8 8 7 6 5 5 4 4 3 2
5 4 4 4 3 4 7 4 3 7 6 7 6 8 7 9 11 14 15 14 14 12 12 11 14 15 14 15 15 15 15 15 14 14 13 12 11 11 10 9 8 7 6 5 4 4 3 3 2
4 5 2 2 2 4 6 5 5 7 7 4 3 5 10 14 13 13 12 11 12 12 11 11 11 13 14 14 15 16 16 15 15 14 14 13 11 11 11 10 10 9 8 7 6 5 4 3 3
5 4 2 3 3 3 5 4 3 6 8 6 6 7 12 13 13 14 15 16 15 15 14 12 12 12 13 14 14 13 14 15 14 14 14 13 12 11 11 11 11 10 9 8 7 7 6 5 5
4 5 4 4 4 2 3 5 4 6 4 3 8 12 13 10 12 13 14 16 17 17 16 15 14 13 13 9 11 11 11 12 13 15 15 14 12 11 10 10 11 10 10 8 7 7 7 6 6
2 2 4 4 3 2 1 2 4 5 1 2 9 13 12 10 10 11 11 12 12 14 16 16 16 14 13 11 10 10 9 9 10 13 15 12 8 7 8 8 9 9 9 7 7 6 7 8 9
1 1 2 4 4 3 0 3 3 4 4 6 8 8 7 7 5 4 4 6 8 11 14 15 17 16 14 11 9 10 9 10 13 14 15 14 8 6 7 7 9 9 10 8 6 6 6 6 7
2 2 3 4 3 1 3 5 6 5 7 10 11 8 7 6 4 3 2 1 3 6 8 11 14 16 15 13 11 10 11 12 13 13 15 17 12 9 7 6 7 8 11 10 7 6 4 4 3
2 3 6 5 2 1 5 9 7 6 8 11 11 10 10 9 10 9 7 4 2 0 2 5 10 12 14 14 13 10 11 12 10 12 16 17 15 12 10 8 8 8 12 10 6 4 4 3 3
5 4 4 6 5 3 7 4 9 9 11 12 12 12 12 12 11 11 11 10 9 8 6 3 4 8 12 12 12 9 10 10 10 12 14 16 17 14 10 8 8 10 10 6 4 4 3 3 3
7 4 4 5 9 6 7 4 10 12 15 15 15 14 13 13 15 14 13 13 12 11 10 8 5 3 7 9 10 9 8 8 9 10 10 13 15 14 9 6 6 8 5 4 5 3 3 3 2
3 3 4 5 7 8 10 9 11 14 17 16 15 15 15 15 14 13 13 12 12 11 11 10 8 5 3 4 4 5 7 7 6 7 8 10 11 12 9 5 6 7 5 4 4 4 3 3 3
5 6 5 3 4 7 11 12 13 16 19 18 16 15 15 14 13 13 13 12 11 11 11 11 10 8 4 1 3 4 5 5 5 5 7 9 8 9 8 6 6 6 6 5 5 4 4 2 2
8 6 5 4 4 5 9 11 11 16 17 15 15 15 15 16 16 16 15 14 13 11 10 10 10 9 6 3 3 3 4 3 4 4 5 7 7 8 7 7 6 6 5 5 4 4 3 2 2
5 4 2 4 6 4 6 6 11 10 14 17 17 15 15 16 16 16 15 14 13 12 11 10 10 10 8 6 2 1 1 1 2 3 3 3 6 7 7 5 5 6 5 5 5 5 5 3 2
4 5 5 4 3 3 2 2 8 11 15 20 19 18 17 17 15 14 15 14 14 12 11 10 10 9 8 5 3 2 4 5 5 4 4 3 4 6 7 6 4 4 4 4 4 4 3 4 3
5 8 6 4 2 2 6 5 5 9 14 19 18 18 17 17 15 14 14 13 13 12 10 10 9 9 8 6 3 3 3 4 4 5 7 5 4 5 6 6 5 4 3 4 4 4 3 3 3
6 6 7 6 5 5 6 4 6 8 13 17 17 17 16 16 15 13 13 13 11 10 9 9 9 9 8 6 5 2 1 3 5 6 7 5 4 4 5 4 4 4 3 3 3 4 4 3 3
9 7 6 8 7 2 4 6 3 7 11 12 16 16 16 14 13 13 13 13 11 11 10 8 8 8 8 7 6 4 2 3 5 6 6 6 4 3 4 4 4 3 3 3 3 3 4 4 4
5 6 5 2 1 1 5 4 1 5 9 11 12 13 14 14 12 12 12 11 10 10 9 8 8 8 8 7 6 5 4 3 3 4 4 4 3 3 3 3 3 3 3 3 3 3 3 4 4
5 4 1 5 2 3 3 2 3 8 13 15 15 15 16 14 14 13 12 11 10 9 8 7 7 7 8 7 6 6 5 5 4 4 4 2 2 2 3 2 2 2 2 2 2 3 4 3 4
5 3 6 5 3 2 2 3 6 13 16 16 16 15 14 14 14 13 12 11 9 8 8 8 8 7 7 7 7 6 6 5 4 4 3 2 1 1 1 1 1 2 2 2 2 2 3 3 3
7 6 5 4 4 3 1 3 4 9 11 12 12 12 13 13 13 12 11 11 9 9 9 9 9 8 8 8 7 7 7 6 6 4 3 2 2 1 1 1 1 1 2 3 3 4 4 3 3
5 4 3 4 3 3 2 3 6 7 8 9 10 10 10 10 10 11 11 11 10 10 10 9 9 9 9 8 8 8 7 7 7 6 5 4 3 2 1 1 1 1 1 1 2 3 3 4 3
Wind_Direction
298 293 131 85 53 57 90 106 100 64 63 70 80 87 89 73 98 136 140 147 139 148 151 149 148 144 141 138 135 133 131 128 125 121 117 115 114 113 109 105 102 99 96 94 92 90 88 90 95
303 288 109 62 79 83 64 136 97 108 133 121 87 87 84 70 87 108 124 144 143 147 149 151 150 147 144 142 140 138 135 132 129 125 123 121 118 116 114 110 109 107 104 101 99 98 97 96 97
269 198 90 71 109 148 179 196 156 141 118 110 86 64 83 112 116 122 143 144 143 146 150 154 153 151 149 147 146 142 139 136 133 130 128 126 123 120 117 114 112 110 109 107 104 102 103 104 104
58 52 53 74 127 191 177 199 172 109 78 72 93 62 59 128 135 135 142 144 144 147 150 156 155 154 153 152 149 146 144 141 139 138 136 134 131 126 121 118 117 114 112 109 107 105 108 112 114
79 70 48 55 115 227 195 162 115 102 88 83 90 83 42 48 123 136 146 147 145 147 153 159 159 159 158 156 155 152 150 148 147 146 145 144 142 138 132 126 123 121 119 117 112 110 113 116 120
52 58 59 15 341 344 11 56 93 97 112 112 106 102 87 123 133 146 149 150 149 152 157 162 164 164 164 163 162 161 159 156 155 155 154 154 152 147 144 138 133 130 127 126 122 118 121 122 124
81 68 44 339 348 17 15 50 91 110 124 142 130 103 122 155 150 151 151 150 152 155 158 161 167 169 170 170 169 168 167 165 163 163 163 162 160 158 156 152 150 147 145 143 140 140 141 142 139
111 85 32 3 11 348 332 3 98 103 110 129 121 129 158 184 158 149 151 152 155 159 162 164 168 171 173 175 176 175 174 173 171 171 172 171 170 171 171 169 169 169 170 171 173 177 180 187 196
85 73 57 339 345 306 328 7 31 56 76 63 79 143 161 160 149 143 149 153 162 167 171 172 173 175 176 177 182 181 180 180 179 179 180 179 179 180 183 185 187 188 191 195 201 211 222 235 255
89 106 177 213 207 259 322 345 31 70 63 53 65 97 138 150 152 155 161 168 174 178 182 181 182 181 180 183 183 182 182 183 182 183 184 183 186 191 195 201 202 203 205 211 218 227 239 251 267
120 159 184 192 197 234 329 347 30 101 81 153 153 152 155 157 162 169 174 178 183 184 186 187 187 185 183 186 179 183 183 182 186 189 191 189 192 203 211 209 212 212 214 220 233 241 248 254 259
92 181 172 186 198 202 264 338 42 68 133 185 158 157 162 169 176 182 188 190 186 184 191 190 190 188 188 185 182 184 184 187 193 198 199 193 194 203 200 200 206 209 215 218 230 239 247 252 252
41 215 222 217 217 223 29 19 75 34 32 73 106 121 137 154 178 185 186 194 191 192 195 192 192 191 188 184 185 186 190 193 198 201 203 198 193 193 189 200 207 215 219 220 222 227 234 240 241
209 212 271 271 269 345 63 30 49 19 36 60 77 84 79 75 66 51 33 96 187 192 200 197 193 191 186 185 187 189 193 195 197 201 205 202 197 191 191 197 204 216 221 222 219 218 215 212 192
300 341 335 337 327 26 81 39 20 354 42 53 55 63 63 52 47 42 29 22 15 290 227 209 196 191 189 189 190 189 193 193 197 204 208 206 202 196 194 199 203 211 218 219 211 210 196 182 160
11 29 355 347 27 50 86 52 1 8 47 44 39 43 45 40 38 31 25 27 27 20 8 329 221 200 196 194 195 192 193 192 197 203 206 207 206 201 188 190 196 200 201 195 180 168 155 155 147
25 20 356 4 20 37 70 64 15 20 45 40 32 30 32 29 26 22 21 23 23 20 11 359 343 248 214 202 197 196 191 191 196 200 202 203 203 197 182 181 180 176 170 171 175 150 143 145 154
347 4 7 22 13 60 72 62 36 35 46 42 32 24 23 23 16 12 14 17 19 15 12 5 353 343 276 229 208 196 187 188 189 191 193 192 192 187 175 168 162 154 147 153 150 136 124 132 147
78 71 39 29 17 60 78 65 42 36 38 32 26 20 15 12 7 9 10 9 13 12 10 3 352 343 338 270 217 204 202 191 187 188 180 177 171 171 166 163 156 149 151 158 150 132 131 127 121
56 56 15 336 9 64 91 71 48 43 38 30 22 13 6 2 2 2 2 3 4 3 3 357 348 338 329 303 250 218 198 189 186 185 173 170 161 156 167 161 160 153 148 148 146 140 143 152 136
31 59 343 312 352 33 106 58 25 21 25 22 18 11 4 360 353 353 354 352 352 354 354 351 340 334 328 320 305 257 146 121 161 170 168 166 155 148 148 155 152 152 152 163 167 160 154 165 179
321 311 307 301 3 309 45 75 15 353 6 8 4 1 356 351 347 345 347 345 344 343 345 345 342 337 330 321 293 229 203 197 192 176 158 147 137 135 135 139 144 153 161 171 176 165 160 157 178
298 297 293 276 187 50 16 97 360 354 1 353 350 351 349 345 342 340 340 338 337 338 342 343 343 345 339 333 311 255 224 206 169 153 145 144 139 128 129 136 137 148 170 184 178 163 167 170 179
336 353 21 45 74 56 350 82 24 3 343 337 342 344 341 339 338 337 336 339 339 342 345 347 347 347 349 353 351 353 155 161 154 155 157 155 146 131 136 141 148 154 162 178 181 182 179 180 195
23 43 31 23 29 45 40 71 40 340 341 335 336 337 336 337 336 339 338 337 340 346 349 351 356 354 355 4 11 22 65 127 148 152 154 155 153 152 151 150 150 145 162 186 174 175 189 190 201
18 78 107 115 278 331 36 60 271 329 332 337 340 341 341 342 342 344 342 339 343 349 350 354 1 2 6 14 18 23 43 79 96 112 129 145 151 148 149 151 161 171 185 192 183 184 205 199 208
28 19 142 142 61 63 43 17 317 339 347 349 350 351 352 349 349 348 346 352 352 353 355 358 6 11 12 18 25 30 42 67 81 89 94 102 116 138 142 147 182 210 210 202 194 207 216 206 210
58 48 51 66 74 50 13 2 332 331 337 343 348 349 347 347 351 353 356 358 358 1 6 12 20 21 19 23 30 42 44 59 71 75 77 76 60 72 113 162 180 201 210 210 203 219 223 201 203
14 25 55 77 97 116 21 321 305 306 317 326 333 341 341 346 349 354 357 358 3 13 20 20 21 24 25 27 32 39 41 46 53 61 62 67 64 69 124 192 188 236 220 210 195 208 195 182 196
59 39 85 108 65 82 118 283 288 297 305 312 323 332 336 340 349 355 358 1 10 17 20 20 21 26 26 28 36 37 35 40 44 43 41 44 46 39 24 25 5 302 302 271 212 212 198 185 185
Height
1520 1518 1518 1518 1521 1532 1532 1524 1516 1514 1514 1513 1512 1513 1517 1520 1524 1531 1529 1530 1532 1534 1537 1539 1541 1543 1544 1545 1546 1547 1548 1548 1549 1550 1550 1551 1551 1552 1552 1552 1553 1553 1553 1554 1554 1555 1556 1556 1557
1519 1518 1519 1519 1530 1544 1535 1520 1516 1513 1513 1513 1514 1516 1518 1521 1522 1524 1527 1531 1533 1535 1537 1539 1541 1543 1544 1546 1546 1547 1548 1549 1549 1550 1551 1551 1552 1552 1553 1553 1553 1554 1554 1554 1555 1555 1556 1557 1557
1518 1517 1519 1521 1532 1538 1531 1518 1513 1511 1511 1512 1516 1518 1520 1523 1524 1525 1528 1531 1534 1536 1538 1540 1542 1543 1545 1546 1547 1548 1548 1549 1550 1551 1551 1552 1552 1553 1553 1554 1554 1554 1554 1555 1555 1555 1556 1557 1558
1518 1518 1519 1526 1529 1522 1517 1514 1511 1512 1514 1514 1516 1520 1523 1525 1524 1526 1529 1532 1535 1537 1539 1541 1542 1544 1545 1546 1547 1548 1549 1549 1550 1551 1552 1552 1553 1553 1554 1554 1554 1554 1554 1555 1555 1556 1556 1557 1558
1517 1518 1524 1530 1525 1517 1512 1511 1511 1513 1515 1517 1517 1523 1525 1526 1525 1527 1530 1534 1535 1537 1539 1541 1543 1544 1545 1546 1547 1548 1549 1550 1550 1551 1552 1552 1553 1553 1554 1554 1554 1554 1555 1555 1555 1556 1556 1557 1558
1518 1519 1533 1536 1527 1517 1513 1512 1512 1514 1517 1519 1520 1524 1527 1528 1527 1529 1532 1535 1537 1538 1540 1541 1543 1544 1545 1546 1547 1548 1549 1550 1550 1551 1552 1552 1553 1553 1554 1554 1554 1555 1555 1555 1556 1556 1557 1557 1558
1521 1525 1534 1533 1530 1522 1516 1513 1513 1515 1516 1518 1519 1524 1528 1529 1529 1530 1532 1535 1537 1538 1540 1541 1543 1544 1545 1546 1547 1548 1548 1549 1550 1551 1552 1552 1553 1553 1554 1554 1554 1555 1555 1556 1556 1557 1557 1558 1559
1522 1526 1534 1534 1531 1526 1517 1515 1514 1514 1517 1519 1519 1522 1527 1529 1530 1531 1533 1535 1537 1538 1540 1541 1542 1543 1544 1545 1546 1547 1548 1549 1550 1551 1551 1552 1553 1553 1554 1554 1554 1555 1555 1556 1556 1557 1558 1558 1559
1523 1533 1540 1536 1532 1527 1519 1517 1516 1517 1517 1519 1519 1520 1522 1527 1530 1532 1533 1535 1536 1538 1539 1540 1541 1542 1543 1544 1545 1546 1547 1548 1549 1550 1551 1552 1552 1553 1554 1554 1554 1555 1555 1556 1557 1557 1558 1559 1560
1524 1536 1534 1529 1527 1525 1521 1519 1518 1520 1520 1521 1522 1523 1524 1527 1529 1530 1531 1532 1534 1536 1537 1539 1540 1541 1542 1543 1544 1545 1546 1547 1548 1549 1550 1551 1552 1553 1553 1554 1554 1554 1555 1556 1557 1558 1559 1560 1560
1522 1529 1527 1525 1523 1523 1522 1520 1519 1520 1523 1523 1522 1523 1525 1527 1528 1529 1530 1530 1531 1533 1535 1537 1538 1539 1540 1541 1542 1543 1544 1545 1546 1547 1549 1550 1551 1552 1553 1553 1554 1554 1555 1556 1557 1558 1559 1560 1561
1522 1523 1523 1523 1522 1522 1522 1521 1521 1521 1523 1523 1522 1522 1524 1526 1527 1528 1529 1530 1531 1532 1533 1535 1536 1537 1538 1539 1540 1541 1542 1543 1544 1545 1547 1548 1549 1551 1552 1553 1554 1555 1555 1556 1557 1558 1559 1560 1560
1521 1522 1522 1521 1521 1521 1522 1522 1523 1524 1525 1523 1524 1525 1526 1527 1528 1529 1529 1530 1530 1531 1531 1532 1533 1535 1536 1537 1538 1539 1540 1541 1543 1544 1545 1546 1548 1549 1551 1552 1554 1555 1556 1557 1557 1558 1559 1559 1560
1521 1521 1521 1521 1520 1521 1522 1524 1525 1528 1527 1525 1525 1527 1528 1529 1529 1529 1529 1529 1529 1529 1530 1530 1531 1532 1533 1534 1535 1537 1538 1539 1540 1542 1543 1544 1546 1547 1549 1551 1553 1554 1555 1556 1557 1558 1558 1559 1560
1520 1521 1522 1521 1520 1522 1523 1531 1532 1532 1529 1529 1529 1529 1529 1529 1529 1529 1529 1528 1528 1528 1528 1529 1529 1529 1530 1531 1533 1534 1536 1537 1538 1539 1541 1542 1544 1546 1547 1549 1551 1553 1554 1555 1556 1557 1558 1559 1559
1522 1527 1533 1526 1523 1523 1528 1542 1538 1535 1532 1532 1533 1532 1531 1531 1530 1530 1529 1527 1527 1526 1526 1527 1528 1527 1528 1528 1529 1530 1532 1533 1535 1537 1538 1540 1542 1543 1545 1547 1549 1550 1552 1554 1555 1556 1557 1558 1559
1535 1541 1538 1532 1528 1528 1533 1545 1544 1540 1537 1538 1537 1536 1534 1533 1532 1530 1529 1527 1526 1525 1525 1525 1525 1525 1525 1525 1526 1527 1529 1530 1532 1533 1535 1537 1539 1541 1543 1545 1546 1548 1550 1552 1553 1554 1555 1556 1557
1544 1542 1542 1540 1536 1535 1542 1549 1547 1544 1542 1543 1542 1540 1537 1535 1534 1533 1530 1528 1526 1525 1524 1522 1522 1522 1523 1523 1524 1524 1525 1526 1528 1529 1532 1534 1536 1538 1540 1542 1544 1545 1547 1549 1551 1552 1553 1554 1555
1538 1543 1546 1542 1538 1541 1549 1553 1553 1550 1547 1547 1546 1544 1541 1539 1536 1533 1530 1528 1526 1524 1522 1520 1519 1519 1519 1519 1520 1520 1521 1522 1524 1526 1528 1530 1532 1534 1536 1539 1541 1543 1544 1546 1548 1549 1551 1552 1553
1541 1546 1548 1544 1539 1543 1552 1557 1557 1555 1555 1555 1552 1548 1544 1540 1535 1532 1529 1527 1524 1522 1520 1518 1517 1516 1516 1515 1516 1516 1517 1518 1519 1522 1525 1526 1529 1531 1533 1536 1538 1539 1542 1543 1545 1546 1548 1549 1550
1545 1548 1548 1547 1543 1543 1550 1561 1562 1559 1558 1555 1553 1550 1547 1543 1538 1532 1528 1526 1523 1520 1518 1516 1514 1512 1512 1511 1512 1513 1513 1515 1516 1518 1520 1522 1524 1527 1530 1532 1534 1536 1538 1540 1541 1542 1543 1545 1547
1551 1543 1542 1542 1550 1557 1552 1570 1571 1564 1560 1557 1554 1551 1548 1543 1538 1533 1528 1524 1521 1518 1515 1513 1511 1509 1508 1507 1507 1507 1508 1509 1511 1513 1515 1518 1520 1522 1525 1528 1530 1532 1534 1536 1537 1538 1539 1541 1542
1546 1540 1540 1541 1548 1559 1560 1572 1578 1568 1566 1562 1558 1553 1549 1544 1538 1533 1528 1523 1520 1517 1513 1511 1508 1506 1504 1503 1503 1503 1504 1505 1506 1509 1511 1513 1516 1517 1520 1522 1525 1527 1529 1531 1533 1534 1535 1537 1538
1544 1542 1543 1548 1557 1573 1572 1576 1582 1578 1575 1568 1561 1555 1550 1543 1537 1532 1527 1522 1519 1516 1512 1509 1506 1504 1501 1500 1499 1499 1500 1501 1502 1504 1507 1509 1511 1512 1515 1518 1520 1522 1525 1527 1529 1530 1532 1533 1534
1551 1560 1570 1573 1580 1582 1574 1579 1586 1580 1575 1570 1564 1556 1549 1543 1537 1531 1526 1522 1518 1515 1511 1508 1506 1503 1500 1498 1497 1497 1497 1498 1499 1501 1503 1505 1507 1509 1512 1514 1516 1519 1521 1524 1525 1526 1528 1529 1530
1558 1565 1581 1586 1587 1584 1579 1584 1585 1578 1575 1570 1564 1557 1549 1543 1537 1531 1527 1523 1518 1514 1512 1508 1506 1503 1500 1498 1497 1496 1496 1496 1497 1500 1501 1504 1506 1508 1510 1512 1514 1516 1518 1520 1522 1523 1524 1526 1526
1563 1568 1568 1579 1579 1587 1587 1585 1581 1577 1573 1568 1562 1556 1550 1544 1538 1532 1528 1523 1518 1515 1512 1510 1507 1504 1502 1499 1498 1497 1497 1497 1498 1500 1502 1503 1505 1507 1509 1510 1512 1514 1516 1518 1519 1520 1522 1523 1524
1565 1567 1575 1582 1589 1595 1592 1591 1592 1581 1575 1569 1563 1558 1552 1546 1540 1534 1529 1524 1520 1517 1514 1511 1509 1507 1504 1502 1501 1500 1499 1499 1500 1501 1503 1504 1505 1506 1508 1509 1511 1512 1514 1516 1517 1519 1520 1521 1522
1571 1573 1578 1585 1588 1597 1600 1598 1587 1583 1577 1572 1567 1561 1555 1549 1543 1537 1532 1527 1523 1519 1516 1514 1511 1509 1507 1505 1504 1503 1502 1502 1502 1503 1504 1505 1506 1507 1509 1510 1511 1512 1514 1515 1517 1518 1519 1519 1520
1572 1575 1579 1589 1593 1595 1598 1600 1583 1580 1576 1572 1568 1562 1557 1552 1546 1541 1535 1530 1526 1522 1520 1517 1514 1512 1510 1509 1508 1507 1506 1506 1505 1506 1506 1507 1508 1509 1510 1510 1511 1513 1514 1515 1516 1517 1518 1519 1519